Location: CNYAC Observatory
(43.2150°N, 74.9500°W)
Time: 08:51:39
(UTC-05:00)

Daily predictions for brighter satellites

Satellite Brightness Start Highest point End
(mag) Time Altitude Azimuth Time Altitude Azimuth Time Altitude Azimuth
BREEZE-M DEB (TANK) 2.0 16:52:31 10° WNW 16:54:49 73° NNE 17:00:21 10° ESE
Hubble Space Telescope 3.7 16:57:12 10° S 16:57:49 10° S 16:58:25 10° S
NOSS 3-2 (A) 4.4 16:54:40 10° NNW 17:01:30 39° NE 17:08:56 10° ESE
DELTA 2 R/B (1) 4.1 16:56:28 10° WSW 17:01:53 55° S 17:07:19 10° E
CSL-04 Rocket 3.7 16:57:11 10° SSE 17:02:31 62° ENE 17:07:57 10° N
Cosmos 990 Rocket 4.0 16:58:22 10° SSW 17:03:31 87° ESE 17:08:44 10° NNE
Meteor 1-28 Rocket 4.0 17:01:50 10° NNE 17:05:14 32° E 17:08:38 10° SSE
Cosmos 1455 Rocket 3.5 17:01:19 10° N 17:05:30 40° ENE 17:09:38 10° SSE
Cosmos 2369 Rocket 4.5 17:03:36 10° W 17:06:50 15° NW 17:10:05 10° N
SJ-12 4.1 17:02:59 10° S 17:07:05 79° WSW 17:11:13 10° NNW
Cosmos 1544 Rocket 3.8 17:05:26 10° N 17:09:40 47° ENE 17:13:50 10° SSE
Cosmos 1697 Rocket 4.1 17:07:22 10° SE 17:10:59 18° E 17:14:25 11° ENE
AQUARIUS 4.2 17:06:47 10° SSE 17:11:10 56° ENE 17:15:34 10° N
Cosmos 1743 2.8 17:09:16 10° N 17:13:07 58° E 17:16:56 10° SSE
Cosmos 1428 Rocket 4.4 17:07:15 10° N 17:13:28 78° E 17:19:35 10° SSE
SJ-7 4.3 17:11:07 10° SSE 17:15:07 73° ENE 17:19:06 10° N
ATLAS 2AS CENTAUR R/B 3.1 17:08:09 10° SSW 17:15:55 82° ESE 17:24:06 10° NE
YAOGAN 1 3.2 17:12:11 10° SE 17:16:04 33° ENE 17:19:58 10° N
CZ-2C R/B 4.4 17:11:43 10° NNE 17:16:04 37° E 17:20:28 10° SSE
ATLAS 3B R/B 2.6 17:11:29 10° NNW 17:18:09 64° NE 17:24:36 10° SE
Cosmos 2082 4.0 17:14:04 10° NNW 17:19:25 43° ENE 17:24:44 10° SE
USA 116 4.1 17:17:04 10° NE 17:19:55 29° E 17:22:39 10° SSE
SMAP 3.0 17:21:52 10° SSE 17:26:31 84° ENE 17:31:11 10° NNW
USA 161 3.9 17:26:24 10° NNW 17:28:48 23° WNW 17:31:15 10° SW
Cosmos 158 Rocket 3.9 17:24:11 10° NNW 17:29:14 57° ENE 17:34:06 10° SE
USA 215 3.6 17:23:38 10° SE 17:30:09 73° SW 17:36:43 10° NW
COSMO-SKYMED 1 3.4 17:26:29 10° NE 17:30:19 30° E 17:34:08 10° SSE
Cosmos 2279 Rocket 4.1 17:24:42 10° S 17:30:57 81° W 17:37:16 10° N
Cosmos 2227 Rocket 2.1 17:26:28 10° NNW 17:32:08 67° ENE 17:37:45 10° SE
Landsat 4 4.4 17:29:20 11° NNE 17:32:37 34° E 17:36:06 10° SSE
NOSS 3-4 (A) 4.4 17:32:27 10° S 17:37:39 29° ESE 17:41:06 18° ENE
NOSS 3-4 (C) 4.4 17:32:34 10° S 17:37:45 29° ESE 17:41:09 18° ENE
SJ 16-02 1.7 17:34:54 10° S 17:39:04 45° ESE 17:42:24 15° NE
Cosmos 1975 Rocket 4.3 17:34:52 10° SSW 17:39:07 43° WNW 17:43:26 10° N
ALOS 2.9 17:35:38 10° SE 17:39:47 33° ENE 17:44:00 10° N
CORIOLIS 4.2 17:36:05 10° SSE 17:41:31 85° WSW 17:46:56 10° NNW
ERS-2 2.7 17:38:41 10° SE 17:42:00 33° ENE 17:45:20 10° N
Cosmos 1271 Rocket 3.2 17:38:46 10° NNW 17:42:32 62° W 17:46:20 10° S
NOSS 8 (A) 4.5 17:39:55 10° SSW 17:43:08 51° ESE 17:44:38 26° ENE
Meteor 2-9 Rocket 4.0 17:38:51 10° N 17:44:23 71° ENE 17:49:44 10° SSE
Atlas Centaur 2 4.1 17:44:52 10° SW 17:48:12 16° SSW 17:51:09 10° SSE
SPOT 3 Rocket 3.8 17:45:54 10° SE 17:50:48 45° ENE 17:55:43 10° N
IRS-1A Rocket 4.2 17:45:40 10° SSE 17:51:16 88° ENE 17:56:50 10° NNW
Cosmos 1980 Rocket 3.3 17:47:05 10° SSE 17:51:21 22° E 17:52:12 22° E
Cosmos 1484 Rocket 4.5 17:53:12 10° SSW 17:56:56 38° W 18:00:43 10° NNW
Cosmos 2297 Rocket 2.2 17:53:15 10° NNW 17:58:57 89° WSW 18:04:37 10° SSE
CENTAUR R/B 3.7 17:52:10 10° NNW 17:59:03 34° NE 18:02:54 23° E
Cosmos 724 4.2 17:54:08 10° NNW 17:59:57 82° ENE 18:05:46 10° SE
Cosmos 1025 Rocket 3.4 18:01:02 10° SSE 18:05:01 39° E 18:05:43 36° ENE
Cosmos 1666 4.4 18:01:47 10° NNW 18:05:12 34° W 18:08:36 10° SSW
Ariane Rocket 4.4 18:01:19 10° SSW 18:06:04 41° W 18:10:51 10° NNW
Cosmos 1536 Rocket 3.8 18:02:55 10° SSW 18:07:15 70° W 18:11:36 10° N
Abrixas rocket 3.2 18:04:38 10° WNW 18:07:38 33° N 18:07:55 32° N
Cosmos 1656 3.5 18:05:12 10° SSW 18:10:46 82° ESE 18:14:33 21° NNE
ISS -1.9 18:08:33 10° WNW 18:11:27 29° SW 18:14:21 10° SSE
Cosmos 1269 Rocket 3.9 18:08:10 10° NNW 18:13:32 86° ENE 18:18:49 10° SSE
Cosmos 494 Rocket 4.3 18:12:21 10° N 18:17:22 43° ENE 18:18:26 38° E
PSLV R/B 3.5 18:14:25 10° WSW 18:17:28 53° S 18:17:28 53° S
SKYMED 2 3.6 18:15:01 16° N 18:18:32 82° WNW 18:22:51 10° SSW
Cosmos 1125 Rocket 3.7 18:13:15 10° SSW 18:18:33 73° WNW 18:22:43 17° NNE
Meteor 2-4 Rocket 4.0 18:13:54 10° SSW 18:19:17 63° WNW 18:24:38 10° N
Cosmos 2084 4.1 18:20:25 10° S 18:23:42 36° SE 18:23:42 36° SE
CZ-4 R/B 3.5 18:21:55 10° SSW 18:25:14 27° W 18:28:38 10° NW
Cosmos 2369 4.2 18:27:25 10° SW 18:33:01 60° WNW 18:36:54 20° NNE
Gblst 52 Del rocket 4.2 18:27:36 10° NW 18:33:16 72° NNE 18:35:04 46° E
Cosmos 2278 4.1 18:28:23 10° SW 18:34:00 62° WNW 18:37:46 22° NNE
Cosmos 2360 4.4 18:30:37 10° S 18:36:01 47° ESE 18:36:01 47° ESE
Cosmos 2263 Rocket 4.2 18:32:52 10° N 18:33:39 13° N 18:33:39 13° N
NOAA 12 4.3 18:33:41 10° S 18:38:56 72° WSW 18:44:12 10° NNW
SL-24 R/B - RUBIN 2 4.2 18:35:26 10° SSW 18:41:33 60° ESE 18:42:12 56° E
FENGYUN 3A 3.9 18:36:41 10° S 18:42:02 67° WSW 18:47:23 10° NNW
Okean 2 3.5 18:41:03 10° SSW 18:45:09 71° W 18:45:16 70° WNW
EO 1 Del DPAF 4.2 18:45:04 35° NNW 18:46:06 45° WNW 18:49:45 10° SW
DELTA 2 R/B (1) 3.9 18:42:36 10° W 18:48:03 57° S 18:49:04 49° SSE
S3M 4.4 18:45:46 10° SSE 18:50:03 42° SE 18:50:03 42° SE
NOSS 3-2 (A) 4.4 18:45:24 10° NW 18:52:53 63° WSW 19:00:58 10° SSE
Cosmos 1697 Rocket 2.9 18:48:42 10° SSW 18:54:19 68° WNW 18:56:12 42° N
NOSS 3-2 (C) 4.2 18:52:22 10° NW 18:59:55 73° WSW 19:08:07 10° SSE
Gbstr 26 Del rocket 4.3 18:53:15 10° WSW 19:01:14 82° NNW 19:02:48 59° NE
ATLAS 2AS CENTAUR R/B 4.3 19:00:50 10° W 19:07:52 33° NW 19:12:22 20° NNE
FengYun 1-2 T 4.4 19:04:53 10° S 19:10:29 73° WSW 19:16:10 10° NNW
ALOS 4.3 19:13:21 10° SSW 19:17:15 26° W 19:21:11 10° NW
SJ 16-02 3.7 19:14:47 10° WSW 19:17:54 19° WNW 19:19:26 16° NNW
Cosmos 1553 Rocket 4.1 19:19:25 10° SSW 19:25:50 76° W 19:26:05 75° WNW
NOSS 3-4 (A) 3.9 19:22:02 10° SW 19:28:08 56° NW 19:28:35 54° NNW
NOSS 3-4 (C) 3.9 19:22:07 10° SW 19:28:14 56° NW 19:28:39 55° NNW
Cosmos 1980 Rocket 2.9 19:29:20 10° SW 19:34:03 50° W 19:34:03 50° W
CENTAUR R/B 3.1 19:42:37 10° NW 19:50:09 77° W 19:50:09 77° W
